• In Hungary
  • List of Countries
  • For 7 days
  • Water Temperature
  • Satellite Maps
  • Weather Map
  • News
  • Weather Widgets
  • user-avatar
    Login

    Hourly Weather Akhaltsikhe

    Today, 14 November, Wednesday

    Time Temperature Precipitation Wind Pressure Humidity
    00:00 +4°C° 0.4 mm 1 mps 651 mmHg 89%
    01:00 +4°C° 0.5 mm 1 mps 651 mmHg 89%
    02:00 +4°C° 0.5 mm 1 mps 651 mmHg 89%
    03:00 +4°C° 0 mm 1 mps 651 mmHg 89%
    04:00 +4°C° 0.2 mm 1 mps 650 mmHg 89%
    05:00 +4°C° 0.2 mm 1 mps 650 mmHg 88%
    06:00 +3°C° 0.2 mm 1 mps 650 mmHg 87%
    07:00 +3°C° 0.1 mm 2 mps 650 mmHg 83%
    08:00 +4°C° 0.1 mm 2 mps 650 mmHg 79%
    09:00 +5°C° 0 mm 2 mps 650 mmHg 75%
    10:00 +4°C° 0.1 mm 3 mps 650 mmHg 72%
    11:00 +5°C° 0.1 mm 3 mps 650 mmHg 68%
    12:00 +7°C° 0.1 mm 3 mps 650 mmHg 65%
    13:00 +5°C° 0.1 mm 3 mps 649 mmHg 65%
    14:00 +5°C° 0.1 mm 3 mps 649 mmHg 66%
    15:00 +5°C° 0.1 mm 3 mps 648 mmHg 66%
    16:00 +4°C° 0.1 mm 3 mps 648 mmHg 70%
    17:00 +3°C° 0.1 mm 3 mps 648 mmHg 73%
    18:00 +3°C° 0.1 mm 2 mps 648 mmHg 76%
    19:00 +3°C° 0.2 mm 2 mps 648 mmHg 77%
    20:00 +3°C° 0.2 mm 2 mps 648 mmHg 77%
    21:00 +3°C° 0.2 mm 2 mps 648 mmHg 77%
    22:00 +3°C° 0.2 mm 2 mps 648 mmHg 78%
    23:00 +3°C° 0.2 mm 2 mps 647 mmHg 78%

    Tomorrow, 15 November, Thursday

    Time Temperature Precipitation Wind Pressure Humidity
    00:00 +3°C° 0.2 mm 2 mps 647 mmHg 78%
    01:00 +2°C° 0.3 mm 2 mps 647 mmHg 79%
    02:00 +2°C° 0.3 mm 2 mps 647 mmHg 80%
    03:00 +2°C° 0.3 mm 2 mps 647 mmHg 80%
    04:00 +2°C° 0.5 mm 2 mps 647 mmHg 81%
    05:00 +2°C° 0.5 mm 2 mps 647 mmHg 82%
    06:00 +3°C° 0.5 mm 1 mps 647 mmHg 83%
    07:00 +3°C° 0.5 mm 1 mps 647 mmHg 83%
    08:00 +4°C° 0.5 mm 1 mps 647 mmHg 82%
    09:00 +4°C° 0.5 mm 1 mps 648 mmHg 81%
    10:00 +4°C° 0.4 mm 1 mps 648 mmHg 79%
    11:00 +5°C° 0.4 mm 1 mps 648 mmHg 78%
    12:00 +5°C° 0.4 mm 1 mps 649 mmHg 76%
    13:00 +5°C° 0.4 mm 1 mps 649 mmHg 77%
    14:00 +6°C° 0.4 mm 1 mps 649 mmHg 77%
    15:00 +6°C° 0.4 mm 1 mps 649 mmHg 78%
    16:00 +5°C° 0.2 mm 1 mps 649 mmHg 80%
    17:00 +4°C° 0.2 mm 1 mps 649 mmHg 83%
    18:00 +4°C° 0.2 mm 1 mps 649 mmHg 85%
    19:00 +3°C° 0.1 mm 1 mps 649 mmHg 85%
    20:00 +3°C° 0.1 mm 1 mps 649 mmHg 85%
    21:00 +2°C° 0.1 mm 2 mps 649 mmHg 85%
    22:00 +2°C° 0.2 mm 2 mps 649 mmHg 84%
    23:00 +2°C° 0.2 mm 2 mps 649 mmHg 83%

    Day after tomorrow, 16 November, Friday

    Time Temperature Precipitation Wind Pressure Humidity
    00:00 +3°C° 0.2 mm 2 mps 649 mmHg 83%
    01:00 +3°C° 0.3 mm 2 mps 649 mmHg 83%
    02:00 +3°C° 0.3 mm 2 mps 649 mmHg 83%
    03:00 +3°C° 0.3 mm 2 mps 649 mmHg 84%
    04:00 +3°C° 0.3 mm 2 mps 649 mmHg 84%
    05:00 +3°C° 0.3 mm 2 mps 649 mmHg 84%
    06:00 +3°C° 0.3 mm 2 mps 649 mmHg 85%
    07:00 +3°C° 0.4 mm 2 mps 649 mmHg 84%
    08:00 +4°C° 0.4 mm 2 mps 649 mmHg 83%
    09:00 +4°C° 0.4 mm 2 mps 649 mmHg 82%
    10:00 +5°C° 0.2 mm 2 mps 649 mmHg 80%
    11:00 +6°C° 0.2 mm 2 mps 649 mmHg 79%
    12:00 +7°C° 0.2 mm 3 mps 649 mmHg 77%
    13:00 +7°C° 0.3 mm 2 mps 649 mmHg 78%
    14:00 +7°C° 0.3 mm 2 mps 649 mmHg 79%
    15:00 +7°C° 0.3 mm 2 mps 649 mmHg 80%
    16:00 +6°C° 0.1 mm 2 mps 649 mmHg 81%
    17:00 +5°C° 0.1 mm 2 mps 649 mmHg 82%
    18:00 +4°C° 0.1 mm 2 mps 648 mmHg 83%
    19:00 +3°C° 0.2 mm 3 mps 648 mmHg 83%
    20:00 +4°C° 0.2 mm 3 mps 648 mmHg 83%
    21:00 +4°C° 0.2 mm 3 mps 648 mmHg 82%
    22:00 +4°C° 0.2 mm 3 mps 648 mmHg 82%
    23:00 +4°C° 0.2 mm 3 mps 648 mmHg 82%

    17 November, Saturday

    Time Temperature Precipitation Wind Pressure Humidity
    00:00 +3°C° 0.2 mm 3 mps 648 mmHg 82%
    01:00 +3°C° 0.2 mm 3 mps 649 mmHg 83%
    02:00 +4°C° 0.2 mm 2 mps 649 mmHg 84%
    03:00 +4°C° 0.2 mm 2 mps 649 mmHg 85%
    04:00 +4°C° 0.3 mm 2 mps 649 mmHg 87%
    05:00 +4°C° 0.3 mm 1 mps 649 mmHg 88%
    06:00 +4°C° 0.3 mm 1 mps 649 mmHg 90%
    07:00 +5°C° 0.2 mm 1 mps 650 mmHg 89%
    08:00 +5°C° 0.2 mm 1 mps 650 mmHg 88%
    09:00 +6°C° 0.2 mm 1 mps 651 mmHg 86%
    10:00 +6°C° 0.4 mm 1 mps 651 mmHg 84%
    11:00 +7°C° 0.4 mm 1 mps 651 mmHg 82%
    12:00 +7°C° 0.4 mm 1 mps 651 mmHg 80%
    13:00 +7°C° 0.3 mm 1 mps 651 mmHg 82%
    14:00 +5°C° 0.3 mm 2 mps 651 mmHg 83%
    15:00 +5°C° 0.3 mm 2 mps 651 mmHg 84%
    16:00 +4°C° 0.4 mm 2 mps 651 mmHg 87%
    17:00 +4°C° 0.4 mm 1 mps 652 mmHg 90%
    18:00 +3°C° 0.4 mm 1 mps 652 mmHg 93%
    19:00 +3°C° 0.3 mm 1 mps 652 mmHg 94%
    20:00 +3°C° 0.3 mm 1 mps 653 mmHg 94%
    21:00 +3°C° 0.3 mm 1 mps 653 mmHg 94%
    22:00 +2°C° 0.1 mm 1 mps 653 mmHg 93%
    23:00 +1°C° 0.1 mm 0 mps 652 mmHg 93%

    18 November, Sunday

    Time Temperature Precipitation Wind Pressure Humidity
    00:00 +1°C° 0.1 mm 0 mps 652 mmHg 93%
    01:00 0°C° 0 mm 0 mps 652 mmHg 92%
    02:00 +1°C° 0 mm 1 mps 652 mmHg 91%
    03:00 +1°C° 0 mm 1 mps 651 mmHg 90%
    04:00 +1°C° 0.1 mm 1 mps 651 mmHg 90%
    05:00 0°C° 0.1 mm 1 mps 651 mmHg 90%
    06:00 0°C° 0.1 mm 1 mps 651 mmHg 90%
    07:00 +1°C° 0.4 mm 1 mps 651 mmHg 89%
    08:00 +1°C° 0.4 mm 1 mps 651 mmHg 87%
    09:00 +1°C° 0.4 mm 1 mps 651 mmHg 86%
    10:00 +2°C° 0.1 mm 1 mps 651 mmHg 83%
    11:00 +3°C° 0.1 mm 1 mps 651 mmHg 80%
    12:00 +3°C° 0.1 mm 2 mps 651 mmHg 77%
    13:00 +3°C° 0.1 mm 2 mps 651 mmHg 78%
    14:00 +3°C° 0.1 mm 2 mps 651 mmHg 78%
    15:00 +3°C° 0.1 mm 2 mps 650 mmHg 79%
    16:00 +3°C° 0.1 mm 1 mps 650 mmHg 83%
    17:00 +2°C° 0.1 mm 1 mps 650 mmHg 86%
    18:00 +1°C° 0.1 mm 1 mps 650 mmHg 90%
    19:00 +1°C° 0.1 mm 1 mps 650 mmHg 90%
    20:00 +1°C° 0.1 mm 1 mps 650 mmHg 89%
    21:00 0°C° 0.1 mm 1 mps 650 mmHg 89%
    22:00 0°C° 0 mm 1 mps 650 mmHg 88%
    23:00 0°C° 0 mm 1 mps 650 mmHg 87%

    19 November, Monday

    Time Temperature Precipitation Wind Pressure Humidity
    00:00 0°C° 0 mm 1 mps 650 mmHg 87%
    01:00 -1°C° 0 mm 1 mps 650 mmHg 86%
    02:00 -1°C° 0 mm 1 mps 650 mmHg 85%
    03:00 -1°C° 0 mm 1 mps 650 mmHg 84%
    04:00 -1°C° 0 mm 1 mps 649 mmHg 83%
    05:00 -1°C° 0 mm 1 mps 649 mmHg 82%
    06:00 -2°C° 0 mm 1 mps 649 mmHg 81%
    07:00 -1°C° 0 mm 1 mps 649 mmHg 77%
    08:00 0°C° 0 mm 1 mps 650 mmHg 74%
    09:00 +2°C° 0 mm 1 mps 650 mmHg 70%
    10:00 +3°C° 0 mm 1 mps 650 mmHg 65%
    11:00 +4°C° 0 mm 1 mps 650 mmHg 61%
    12:00 +5°C° 0 mm 2 mps 650 mmHg 57%
    13:00 +5°C° 0 mm 2 mps 650 mmHg 57%
    14:00 +5°C° 0 mm 2 mps 649 mmHg 56%
    15:00 +5°C° 0 mm 1 mps 649 mmHg 56%
    16:00 +3°C° 0 mm 2 mps 649 mmHg 59%
    17:00 +1°C° 0 mm 2 mps 649 mmHg 62%
    18:00 -2°C° 0 mm 2 mps 649 mmHg 65%
    19:00 -2°C° 0 mm 2 mps 649 mmHg 63%
    20:00 -2°C° 0 mm 2 mps 649 mmHg 61%
    21:00 -3°C° 0 mm 2 mps 649 mmHg 59%
    22:00 -2°C° 0 mm 2 mps 649 mmHg 59%
    23:00 -2°C° 0 mm 2 mps 649 mmHg 58%
    Show more